Location: Catstown
(52.4386°N, 7.2633°W)
Time: 22:50:39
(UTC+00:00)

USA 186 - Pass Details

Date: 18 September 2020
Orbit: 261 x 425 km, 96.9° (Epoch: 12 October)

Event Time Altitude Azimuth Distance (km) Brightness Sun altitude
Exits shadow 20:20:54 - 189° (S) 1,596 4.5 -16.3°
Reaches altitude 10° 20:21:16 10° 191° (S) 1,448 4.3 -16.3°
Maximum altitude 20:24:13 39° 262° (W) 633 3.1 -16.7°
Drops below altitude 10° 20:27:18 10° 334° (NNW) 1,519 5.3 -17.2°
Sets 20:29:27 0° 342° (NNW) 2,403 6.3 -17.4°
